Torna al catalogo

COSMOS 272

AttivoMilitareLEO
NORAD 3818·PAYLOAD·🇷🇺 Russia

Lanciato Mar 17, 1969 da Plesetsk Cosmodrome

Loading…

Prossimi Passaggi (prossime 24 ore)

TLE

AggiornatoSource: Space-Track

Epoca: Sep 14, 2026, 02:06 UTC

1 03818U 69024A   26257.08784037 -.00000153  00000-0 -34064-3 0  9991
2 03818  73.9896 122.3980 0019730 299.9242 224.6580 13.17952054765569

Traccia COSMOS 272 in tempo reale con AllMySat

Download on the App Store